This is the latest recevied weather packets stored in our database for station/object WX4LTG. If no packets are shown the sender has not sent any weather packets the latest 10 day(s).
| Time | Temp. | Humidity | Pressure | Rain* | Wind** | Luminosity | Snow |
|---|---|---|---|---|---|---|---|
| 1777172216 | 26.11° C | 23% | 1006.6 hPa | 0 mm | - | 0 W/m² | - |
| 1777171914 | 26.11° C | 23% | 1006.7 hPa | 0 mm | - | 0 W/m² | - |
| 1777171609 | 26.11° C | 23% | 1006.9 hPa | 0 mm | - | 0 W/m² | - |
| 1777171305 | 25.56° C | 23% | 1006.7 hPa | 0 mm | - | 0 W/m² | - |
| 1777171005 | 26.11° C | 23% | 1006.9 hPa | 0 mm | - | 0 W/m² | - |
| 1777170699 | 26.11° C | 22% | 1006.6 hPa | 0 mm | - | 0 W/m² | - |
| 1777170396 | 26.11° C | 22% | 1006.6 hPa | 0 mm | - | 0 W/m² | - |
| 1777170093 | 26.11° C | 22% | 1006.7 hPa | 0 mm | - | 0 W/m² | - |
| 1777169790 | 26.11° C | 22% | 1006.4 hPa | 0 mm | - | 1 W/m² | - |
| 1777169486 | 26.67° C | 22% | 1006.5 hPa | 0 mm | - | 1 W/m² | - |
| 1777169181 | 26.67° C | 22% | 1006.5 hPa | 0 mm | - | 3 W/m² | - |
| 1777168876 | 26.67° C | 22% | 1006.4 hPa | 0 mm | - | 5 W/m² | - |
| 1777168574 | 26.67° C | 23% | 1006.3 hPa | 0 mm | - | 6 W/m² | - |
| 1777168270 | 26.67° C | 22% | 1006.5 hPa | 0 mm | - | 9 W/m² | - |
| 1777167969 | 26.67° C | 23% | 1006.5 hPa | 0 mm | - | 12 W/m² | - |
| 1777167669 | 26.67° C | 22% | 1006.4 hPa | 0 mm | - | 18 W/m² | - |
| 1777167364 | 27.22° C | 22% | 1006.4 hPa | 0 mm | - | 24 W/m² | - |
| 1777167059 | 27.22° C | 22% | 1006.4 hPa | 0 mm | - | 32 W/m² | - |
| 1777166756 | 27.78° C | 22% | 1006.4 hPa | 0 mm | - | 37 W/m² | - |
| 1777166451 | 27.22° C | 22% | 1006.5 hPa | 0 mm | - | 50 W/m² | - |
| 1777166147 | 27.22° C | 21% | 1006.5 hPa | 0 mm | - | 65 W/m² | - |
| 1777165844 | 27.22° C | 20% | 1006.5 hPa | 0 mm | - | 63 W/m² | - |
| 1777165542 | 27.22° C | 21% | 1006.5 hPa | 0 mm | - | 57 W/m² | - |
| 1777165238 | 27.78° C | 22% | 1006.8 hPa | 0 mm | - | 50 W/m² | - |
| 1777164938 | 27.22° C | 21% | 1006.8 hPa | 0 mm | - | 65 W/m² | - |
* Rain latest hour (hover to see other rain measurements)
** Current wind speed in m/s (hover to see current wind gust speed)